Starlink 36182

operational
NORAD ID: 67192 Int'l Des: 2025-304 Owner: SPXS Country: US Constellation: starlink
LEOCIRCULAR

About Starlink 36182

Description loading...

Live Position

Loading 3D Globe...

Upcoming Passes

Altitude History

Altitude vs Time

uPlot chart will show altitude changes over time

Two-Line Element Set

1 67192C 25304A 25352.76437500 .00702440 00000+0 97201-3 0 3529
2 67192 69.9985 31.2817 0009016 256.2784 215.3287 16.04998692 18
Epoch: Dec 18, 2025 • Age: 50 hours

Current Status

Altitude 271.7 km
Velocity 7.75 km/s
Sub-Earth Point -59.05°S, 121.1°E
Launch Date Dec 17, 2025
Age 2 days
Type internet

Technical Details

Classification Payload
Mass 575.00 kg
Dry Mass 530.00 kg
Total Mass 575.00 kg
Length 0.30 m
Diameter 4.10 m
Span 29.00 m
Shape Box + pan
Manufacturer SPXS
Bus Type Starlink V2MO
Phase Status In Orbit
Owner/State SPXS/US

Large Constellations

Loading constellations...